Location: STAR School
(35.3054°N, 111.2976°W)
Time: 20:26:08
(UTC-07:00)

Transit 2A Rocket - Pass Details

Date: 26 May 2019
Orbit: 586 x 917 km, 66.7° (Epoch: 23 June)

Event Time Altitude Azimuth Distance (km) Brightness Sun altitude
Rises 01:01:09 0° 346° (NNW) 3,391 9.2 -32.8°
Reaches altitude 10° 01:04:28 10° 4° (N) 2,391 8.4 -32.7°
Maximum altitude 01:08:13 19° 48° (NE) 1,789 7.4 -32.5°
Enters shadow 01:11:06 12° 86° (E) 2,079 7.4 -32.4°
